This is the latest recevied weather packets stored in our database for station/object OE7AOT-2. If no packets are shown the sender has not sent any weather packets the latest 10 day(s).
| Time | Temp. | Humidity | Pressure | Rain* | Wind** | Luminosity | Snow |
|---|---|---|---|---|---|---|---|
| 1778251657 | 28.89° C | 54% | 923.6 hPa | 0 mm | - | - | - |
| 1778251589 | 28.33° C | 54% | 923.7 hPa | 0 mm | - | - | - |
| 1778251520 | 27.78° C | 54% | 923.7 hPa | 0 mm | - | - | - |
| 1778251452 | 28.33° C | 54% | 923.7 hPa | 0 mm | - | - | - |
| 1778251383 | 28.89° C | 53% | 923.7 hPa | 0 mm | - | - | - |
| 1778251315 | 30° C | 51% | 923.7 hPa | 0 mm | - | - | - |
| 1778251247 | 31.67° C | 50% | 923.7 hPa | 0 mm | - | - | - |
| 1778251178 | 32.78° C | 49% | 923.7 hPa | 0 mm | - | - | - |
| 1778251110 | 32.22° C | 49% | 923.7 hPa | 0 mm | - | - | - |
| 1778251041 | 32.78° C | 48% | 923.7 hPa | 0 mm | - | - | - |
| 1778250973 | 33.33° C | 48% | 923.7 hPa | 0 mm | - | - | - |
| 1778250904 | 33.33° C | 48% | 923.8 hPa | 0 mm | - | - | - |
| 1778250836 | 34.44° C | 46% | 923.7 hPa | 0 mm | - | - | - |
| 1778250767 | 33.89° C | 46% | 923.7 hPa | 0 mm | - | - | - |
| 1778250699 | 33.89° C | 47% | 923.6 hPa | 0 mm | - | - | - |
| 1778250631 | 33.33° C | 48% | 923.7 hPa | 0 mm | - | - | - |
| 1778250562 | 33.33° C | 48% | 923.8 hPa | 0 mm | - | - | - |
| 1778250494 | 34.44° C | 47% | 923.8 hPa | 0 mm | - | - | - |
| 1778250425 | 33.33° C | 48% | 923.8 hPa | 0 mm | - | - | - |
| 1778250357 | 31.67° C | 50% | 923.7 hPa | 0 mm | - | - | - |
| 1778250288 | 31.11° C | 50% | 923.9 hPa | 0 mm | - | - | - |
| 1778250220 | 30° C | 51% | 923.8 hPa | 0 mm | - | - | - |
| 1778250152 | 31.11° C | 50% | 923.8 hPa | 0 mm | - | - | - |
| 1778250083 | 32.78° C | 49% | 923.8 hPa | 0 mm | - | - | - |
| 1778250015 | 33.89° C | 47% | 923.7 hPa | 0 mm | - | - | - |
* Rain latest hour (hover to see other rain measurements)
** Current wind speed in m/s (hover to see current wind gust speed)